This is the latest recevied weather packets stored in our database for station/object W7BL. If no packets are shown the sender has not sent any weather packets the latest 10 day(s).
| Time | Temp. | Humidity | Pressure | Rain* | Wind** | Luminosity | Snow |
|---|---|---|---|---|---|---|---|
| 1777603421 | 15° C | 48% | - | 0 mm | - | - | - |
| 1777603116 | 15° C | 47% | - | 0 mm | - | - | - |
| 1777602811 | 15° C | 47% | - | 0 mm | - | - | - |
| 1777602506 | 15.56° C | 46% | - | 0 mm | - | - | - |
| 1777602203 | 16.11° C | 45% | - | 0 mm | - | - | - |
| 1777601899 | 16.11° C | 44% | - | 0 mm | - | - | - |
| 1777601594 | 16.67° C | 44% | - | 0 mm | - | - | - |
| 1777601289 | 17.22° C | 42% | - | 0 mm | - | - | - |
| 1777600987 | 17.78° C | 40% | - | 0 mm | - | - | - |
| 1777600683 | 18.33° C | 37% | - | 0 mm | - | - | - |
| 1777600379 | 19.44° C | 33% | - | 0 mm | - | - | - |
| 1777600075 | 20.56° C | 31% | - | 0 mm | - | - | - |
| 1777599771 | 20.56° C | 31% | - | 0 mm | - | - | - |
| 1777599466 | 21.11° C | 31% | - | 0 mm | - | - | - |
| 1777599164 | 21.67° C | 29% | - | 0 mm | - | - | - |
| 1777598858 | 21.11° C | 27% | - | 0 mm | - | - | - |
| 1777598558 | 21.11° C | 27% | - | 0 mm | - | - | - |
| 1777598252 | 21.67° C | 28% | - | 0 mm | - | - | - |
| 1777597950 | 20.56° C | 27% | - | 0 mm | - | - | - |
| 1777597644 | 21.11° C | 27% | - | 0 mm | - | - | - |
| 1777597340 | 21.11° C | 27% | - | 0 mm | - | - | - |
| 1777597035 | 21.67° C | 28% | - | 0 mm | - | - | - |
| 1777596732 | 22.22° C | 27% | - | 0 mm | - | - | - |
| 1777596429 | 20.56° C | 26% | - | 0 mm | - | - | - |
| 1777596126 | 21.67° C | 26% | - | 0 mm | - | - | - |
* Rain latest hour (hover to see other rain measurements)
** Current wind speed in m/s (hover to see current wind gust speed)